[[{"header":{"parameterUnit":"m.s-1","parameterCategory":1,"la1":30.2991,"la2":30.254,"lo1":-89.0895,"lo2":-89.0444,"dy":0.0017,"dx":0.0017,"nx":28,"ny":28,"refTime":"2024-02-18T03:00:00:Z","depth":0,"parameterNumber":2,"parameterNumberName":"U-component_of_WINDS"},"data":[0,0,0,0,0,0,0,0,0,0,0,0,0,0,0,0,0,0,0,0,0,0,0,0,0,0,0,0,0,0,0,0,0,0,0,0,0,0,0,0,0,0,0,0,0,0,0,0,0,0,0,0,0,0,0,0,0,0,0.4795,0.4795,0,0.4771,0.477,0.477,0.4766,0.4766,0.4766,0.4766,0.474,0.4739,0.4738,0,0,0,0,0,0,0,0,0,0,0,0,0,0.4838,0.4837,0.4795,0.4795,0.4794,0.4771,0.477,0.477,0.4766,0.4766,0.4766,0.4766,0.474,0.4739,0.4738,0,0,0,0,0,0,0,0,0,0,0,0,0,0.4817,0.4837,0.4795,0.479,0.4789,0.4771,0.477,0.477,0.4766,0.4766,0.4766,0.4767,0.474,0.4739,0.4738,0.4723,0,0,0.4734,0.4733,0,0,0,0,0,0,0,0,0.4818,0.4815,0.4791,0.479,0.4789,0.4772,0.4776,0.4754,0.4766,0.4774,0.4766,0.4767,0.475,0.4748,0.4743,0.4722,0.4721,0.4734,0.4733,0.4732,0.4732,0,0,0,0,0,0,0,0.4819,0.4816,0.4785,0.479,0.4789,0.4788,0.4785,0.4771,0.4761,0.4774,0.4773,0.4771,0.475,0.4744,0.4742,0.472,0.4734,0.4732,0.4732,0.4731,0.4687,0.4687,0,0,0,0,0,0,0.4822,0.4818,0.4786,0.4785,0.4805,0.4787,0.4784,0.4777,0.4761,0.4759,0.477,0.477,0.4746,0.4743,0.4741,0.4723,0.4732,0.4731,0.473,0.4687,0.4687,0.4687,0,0,0,0,0,0,0.4823,0.4819,0.4787,0.4801,0.4797,0.4786,0.4778,0.4776,0.477,0.4758,0.4756,0.4766,0.4746,0.4743,0.4728,0.4722,0.473,0.4729,0.4688,0.4687,0.4687,0.4687,0,0,0,0,0,0,0.4824,0.482,0.4814,0.4801,0.4796,0.4774,0.4777,0.4775,0.4768,0.4768,0.4754,0.4752,0.4746,0.473,0.4726,0.472,0.4728,0.4688,0.4688,0.4687,0.4687,0.4686,0.4686,0,0,0,0,0,0.4826,0.4814,0.4814,0.481,0.4789,0.4774,0.4771,0.4765,0.4768,0.4762,0.4754,0.4753,0.4723,0.4728,0.4725,0.4718,0.4689,0.4688,0.4687,0.4688,0.4686,0.4686,0,0,0,0,0,0,0.4826,0.4813,0.4812,0.4796,0.4786,0.4773,0.4766,0.4764,0.4753,0.4754,0.4746,0.4743,0.4728,0.4722,0.4727,0.4703,0.4706,0.4705,0.4708,0.4707,0.4706,0.4708,0.4727,0,0,0,0,0,0.4825,0.4814,0.4803,0.479,0.4785,0.4777,0.477,0.4766,0.4756,0.4752,0.4743,0.4733,0.4721,0.4714,0.4702,0.4687,0.4684,0.468,0.4679,0.4679,0.4677,0.4669,0.4667,0.4684,0.4684,0.4684,0,0,0.4821,0.4812,0.4806,0.479,0.4782,0.4771,0.4773,0.4761,0.4753,0.475,0.4735,0.4728,0.4717,0.4701,0.4694,0.4695,0.4672,0.4678,0.4677,0.4676,0.4668,0.4666,0.4665,0.4684,0.4684,0.4684,0,0,0.4809,0.4801,0.479,0.4782,0.4771,0.4765,0.4763,0.475,0.4746,0.4732,0.4729,0.4719,0.47,0.4691,0.4685,0.4671,0.4669,0.4668,0.4663,0.4655,0.4653,0.4652,0.4647,0.4646,0.4666,0.4666,0.4666,0,0.4805,0.4789,0.4784,0.4773,0.4766,0.4763,0.4752,0.4744,0.473,0.4725,0.4727,0.4703,0.4695,0.4678,0.4674,0.4669,0.4666,0.4669,0.4654,0.4653,0.4652,0.4647,0.4645,0.4666,0.4666,0.4666,0.4666,0,0.4786,0.4775,0.4767,0.4754,0.4746,0.4735,0.4728,0.4721,0.4718,0.4712,0.4698,0.4688,0.4675,0.4671,0.4668,0.4654,0.4655,0.4656,0.4658,0.465,0.4645,0.4644,0.4666,0.4666,0.4666,0.4666,0,0,0.4772,0.4757,0.4754,0.4748,0.4736,0.4727,0.4716,0.4704,0.4698,0.4689,0.4679,0.4663,0.4664,0.4657,0.4653,0.4646,0.4636,0.4647,0.4647,0.4645,0.462,0.462,0.4617,0.4635,0.4635,0.4634,0.4621,0,0.4758,0.4738,0.4734,0.4717,0.4706,0.4704,0.4695,0.4686,0.4681,0.4672,0.4666,0.4655,0.4657,0.4652,0.4645,0.4639,0.4631,0.464,0.4626,0.4625,0.4628,0.4615,0.4614,0.4602,0.4619,0.4619,0.4619,0,0.4738,0.4729,0.4711,0.4701,0.4697,0.4688,0.4678,0.4669,0.4659,0.4656,0.4649,0.4646,0.4634,0.4639,0.4623,0.4629,0.4623,0.4619,0.4618,0.4616,0.4621,0.4612,0.4598,0.4596,0.4616,0.4616,0.4616,0,0.473,0.4713,0.47,0.4696,0.4684,0.4678,0.4672,0.4663,0.4657,0.4648,0.4643,0.4633,0.4626,0.4618,0.4613,0.4616,0.4598,0.4601,0.4594,0.4594,0.459,0.459,0.4574,0.4587,0.4587,0.4587,0.4587,0,0.4714,0.4704,0.4697,0.4689,0.4677,0.4672,0.466,0.4655,0.4647,0.4638,0.4636,0.4628,0.4621,0.4612,0.4608,0.4595,0.4593,0.459,0.4589,0.459,0.459,0.4585,0.4586,0.4586,0.4587,0.4587,0.4587,0,0.4702,0.4697,0.4683,0.4674,0.4671,0.4663,0.4654,0.4647,0.4642,0.4631,0.4628,0.4621,0.461,0.4604,0.459,0.4587,0.4574,0.4573,0.4577,0.4576,0.457,0.457,0.455,0.4547,0.4562,0.4562,0.4562,0,0.4693,0.4684,0.4674,0.4668,0.4663,0.4654,0.4647,0.4643,0.4636,0.4626,0.462,0.4609,0.46,0.4583,0.4576,0.4566,0.4565,0.4559,0.4563,0.4565,0.4565,0.4565,0.4564,0.4557,0.4557,0.4557,0.4557,0,0.4676,0.4674,0.4665,0.4656,0.4648,0.464,0.4633,0.4628,0.4622,0.4615,0.4604,0.4598,0.4584,0.4574,0.4563,0.4558,0.4556,0.4556,0.4554,0.4554,0.4557,0.4555,0.4574,0.4556,0.4556,0.4556,0.4556,0.4556,0.4664,0.4657,0.4649,0.464,0.4634,0.4627,0.4619,0.4614,0.4605,0.4595,0.4593,0.4581,0.4573,0.4559,0.4553,0.4545,0.4546,0.4543,0.4542,0.4541,0.4541,0.4559,0.4543,0.4543,0.4543,0.4543,0.4543,0,0.4647,0.4642,0.4634,0.4623,0.4616,0.4616,0.4608,0.4602,0.4592,0.4585,0.4577,0.4565,0.4555,0.4548,0.4538,0.4532,0.4532,0.453,0.453,0.4529,0.454,0.4543,0.4531,0.4531,0.4531,0.4531,0.4531,0.4531,0.4638,0.4626,0.4623,0.4608,0.4603,0.4593,0.4588,0.4582,0.4576,0.4563,0.4555,0.4551,0.4544,0.4534,0.4525,0.4523,0.452,0.4518,0.4516,0.4527,0.4528,0.4529,0.4532,0.4517,0.4517,0.4505,0.4505,0.4505]},{"header":{"parameterUnit":"m.s-1","parameterCategory":1,"la1":30.2991,"la2":30.254,"lo1":-89.0895,"lo2":-89.0444,"dy":0.0017,"dx":0.0017,"nx":28,"ny":28,"refTime":"2024-02-18T03:00:00:Z","depth":0,"parameterNumber":3,"parameterNumberName":"V-component_of_WINDS"},"data":[0,0,0,0,0,0,0,0,0,0,0,0,0,0,0,0,0,0,0,0,0,0,0,0,0,0,0,0,0,0,0,0,0,0,0,0,0,0,0,0,0,0,0,0,0,0,0,0,0,0,0,0,0,0,0,0,0,0,-5.5971,-5.5972,0,-5.6094,-5.6096,-5.6097,-5.605,-5.6047,-5.6044,-5.6041,-5.6163,-5.6168,-5.6174,0,0,0,0,0,0,0,0,0,0,0,0,0,-5.5688,-5.5694,-5.5971,-5.5972,-5.5974,-5.6094,-5.6096,-5.6097,-5.605,-5.6047,-5.6043,-5.604,-5.6161,-5.6168,-5.6175,0,0,0,0,0,0,0,0,0,0,0,0,0,-5.5811,-5.5695,-5.597,-5.5965,-5.5965,-5.6094,-5.6096,-5.6098,-5.6051,-5.6047,-5.6042,-5.6038,-5.6158,-5.6167,-5.6176,-5.6315,0,0,-5.6203,-5.6206,0,0,0,0,0,0,0,0,-5.5804,-5.5822,-5.5964,-5.5965,-5.5966,-5.6052,-5.6041,-5.6171,-5.6052,-5.6018,-5.6041,-5.6036,-5.6129,-5.614,-5.6172,-5.6321,-5.6326,-5.6203,-5.6209,-5.6213,-5.6215,0,0,0,0,0,0,0,-5.5796,-5.5816,-5.6019,-5.5966,-5.5968,-5.5954,-5.5967,-5.6065,-5.6096,-5.6021,-5.6018,-5.6033,-5.6129,-5.6164,-5.6175,-5.6328,-5.6203,-5.6211,-5.6216,-5.622,-5.6596,-5.6601,0,0,0,0,0,0,-5.5788,-5.5809,-5.6015,-5.6023,-5.5873,-5.5963,-5.5977,-5.6029,-5.6095,-5.6101,-5.6037,-5.6031,-5.6151,-5.6165,-5.6179,-5.6346,-5.6212,-5.6221,-5.6226,-5.6591,-5.6597,-5.6602,0,0,0,0,0,0,-5.5782,-5.5806,-5.601,-5.5915,-5.594,-5.5972,-5.6031,-5.6034,-5.6069,-5.6107,-5.6112,-5.6068,-5.6148,-5.6167,-5.6282,-5.635,-5.6225,-5.6233,-5.6586,-5.6593,-5.66,-5.6682,0,0,0,0,0,0,-5.5774,-5.5805,-5.5859,-5.5917,-5.5946,-5.6113,-5.6035,-5.6039,-5.6085,-5.6078,-5.6137,-5.6142,-5.6146,-5.6269,-5.6291,-5.636,-5.624,-5.658,-5.6589,-5.6597,-5.6674,-5.6691,-5.6707,0,0,0,0,0,-5.5764,-5.5876,-5.5862,-5.5887,-5.6015,-5.6117,-5.6133,-5.6137,-5.6091,-5.6145,-5.6169,-5.6141,-5.6339,-5.6281,-5.6305,-5.6378,-5.6576,-5.6586,-5.6597,-5.6666,-5.6688,-5.6706,0,0,0,0,0,0,-5.5824,-5.5884,-5.5869,-5.6004,-5.6056,-5.6109,-5.6178,-5.616,-5.6225,-5.6216,-5.6216,-5.6229,-5.6348,-5.6374,-5.6309,-5.6516,-5.645,-5.6466,-5.6495,-5.6515,-5.6532,-5.6522,-5.6247,0,0,0,0,0,-5.5853,-5.5933,-5.598,-5.6095,-5.6122,-5.6146,-5.619,-5.6189,-5.6242,-5.6263,-5.6296,-5.6347,-5.6421,-5.647,-5.654,-5.6677,-5.6689,-5.6739,-5.6755,-5.6769,-5.6782,-5.6856,-5.6879,-5.6637,-5.6637,-5.6637,0,0,-5.5914,-5.5957,-5.6007,-5.6108,-5.6148,-5.623,-5.6164,-5.6253,-5.6313,-5.6276,-5.6388,-5.6414,-5.647,-5.6598,-5.6655,-5.6623,-5.6851,-5.6782,-5.6792,-5.6799,-5.6869,-5.6892,-5.6912,-5.6644,-5.6643,-5.6642,0,0,-5.6066,-5.6107,-5.6207,-5.6249,-5.6311,-5.6326,-5.635,-5.6406,-5.6423,-5.6535,-5.6509,-5.6579,-5.6706,-5.6748,-5.6786,-5.6954,-5.693,-5.6977,-5.7062,-5.7134,-5.7153,-5.717,-5.7229,-5.7251,-5.699,-5.699,-5.699,0,-5.6133,-5.6256,-5.626,-5.6351,-5.6396,-5.6368,-5.6469,-5.6508,-5.659,-5.6621,-5.6584,-5.6744,-5.678,-5.6916,-5.6957,-5.6989,-5.7015,-5.697,-5.7151,-5.7168,-5.7183,-5.724,-5.7262,-5.6996,-5.6995,-5.6994,-5.6994,0,-5.6335,-5.6421,-5.6493,-5.6575,-5.6628,-5.6723,-5.674,-5.6792,-5.6786,-5.6805,-5.6918,-5.6961,-5.704,-5.7072,-5.7066,-5.7207,-5.7185,-5.715,-5.7083,-5.7212,-5.7265,-5.7286,-5.7003,-5.7001,-5.7,-5.6998,0,0,-5.6528,-5.6611,-5.6638,-5.6674,-5.6741,-5.6806,-5.69,-5.6978,-5.7023,-5.708,-5.7157,-5.7266,-5.7234,-5.7277,-5.7275,-5.7338,-5.7468,-5.7295,-5.7296,-5.7325,-5.7625,-5.7651,-5.7677,-5.7453,-5.7457,-5.746,-5.762,0,-5.6685,-5.6851,-5.6857,-5.7008,-5.7086,-5.7061,-5.7142,-5.7191,-5.7211,-5.7279,-5.7299,-5.7376,-5.7328,-5.7354,-5.7416,-5.7439,-5.7528,-5.7428,-5.7523,-5.7526,-5.7509,-5.7704,-5.7732,-5.7882,-5.7641,-5.7645,-5.7647,0,-5.6891,-5.6956,-5.7115,-5.7171,-5.7204,-5.7277,-5.7349,-5.7415,-5.7469,-5.7479,-5.7528,-5.7517,-5.761,-5.7541,-5.7669,-5.7601,-5.764,-5.7657,-5.7663,-5.7672,-5.7594,-5.7718,-5.7929,-5.7952,-5.768,-5.7677,-5.7675,0,-5.7015,-5.7143,-5.7254,-5.7286,-5.7354,-5.7406,-5.7437,-5.7487,-5.7534,-5.7596,-5.7626,-5.7697,-5.7737,-5.7791,-5.7799,-5.7749,-5.7928,-5.786,-5.7937,-5.7937,-5.7975,-5.7973,-5.8196,-5.8002,-5.8001,-5.8001,-5.8,0,-5.719,-5.7288,-5.7311,-5.738,-5.7489,-5.7494,-5.7601,-5.7627,-5.7672,-5.7744,-5.7726,-5.7793,-5.78,-5.7869,-5.7876,-5.7981,-5.7998,-5.8007,-5.8008,-5.8009,-5.8008,-5.8034,-5.8024,-5.8007,-5.8005,-5.8004,-5.8003,0,-5.7347,-5.7367,-5.7487,-5.7542,-5.7558,-5.7636,-5.7682,-5.7746,-5.7764,-5.7855,-5.7877,-5.7904,-5.7985,-5.7999,-5.8092,-5.8097,-5.8222,-5.8212,-5.8204,-5.8203,-5.8279,-5.8272,-5.8527,-5.856,-5.8344,-5.8346,-5.8348,0,-5.7457,-5.7532,-5.7595,-5.7643,-5.7677,-5.7754,-5.7802,-5.781,-5.786,-5.7928,-5.7984,-5.8063,-5.8127,-5.8256,-5.8283,-5.8354,-5.8345,-5.843,-5.8356,-5.8355,-5.8346,-5.8341,-5.8348,-5.8444,-5.8446,-5.8448,-5.845,0,-5.7649,-5.7656,-5.7727,-5.7802,-5.786,-5.7918,-5.7974,-5.8013,-5.8028,-5.8085,-5.8168,-5.8218,-5.8314,-5.8392,-5.8464,-5.8492,-5.8474,-5.8473,-5.8494,-5.8496,-5.8488,-5.8493,-5.8243,-5.8467,-5.8465,-5.8464,-5.8463,-5.8462,-5.7786,-5.7852,-5.7907,-5.7986,-5.8029,-5.8082,-5.8145,-5.8172,-5.8242,-5.8323,-5.8322,-5.8413,-5.8464,-5.8559,-5.8592,-5.8662,-5.8635,-5.8666,-5.8674,-5.8681,-5.8689,-5.8478,-5.8675,-5.8674,-5.8674,-5.8674,-5.8673,0,-5.7977,-5.8012,-5.8085,-5.8164,-5.8226,-5.8205,-5.8265,-5.8318,-5.8399,-5.845,-5.8513,-5.8608,-5.8684,-5.8717,-5.8791,-5.884,-5.8833,-5.8859,-5.8855,-5.8862,-5.8709,-5.8683,-5.8864,-5.8864,-5.8864,-5.8864,-5.8864,-5.8864,-5.8084,-5.8194,-5.8207,-5.8338,-5.8371,-5.8461,-5.8498,-5.8545,-5.8586,-5.8693,-5.8757,-5.8779,-5.8822,-5.8899,-5.8967,-5.8975,-5.9002,-5.9032,-5.9036,-5.8892,-5.8873,-5.8855,-5.883,-5.9039,-5.9039,-5.9183,-5.9184,-5.9185]}]]